Content
SEND FEEDBACK

Daily
Averages
Monthly
Summary
Czech Republic

PRAGUE, CZECH REPUBLIC


Home > Europe > Czech Republic
Elevation: 1184 feet     Latitude: 50 06N     Longitude: 014 15E

WEATHER
 
SELECT A DAY
Number of Records: 331,418;   Date Range: 7/1/96 - 11/25/14
 
SHARE

PRINT THIS DATA

[ ← Previous Day ]
WEATHER ALMANAC - FEBRUARY 8, 2013
[ Next Day → ]
[ °C ]   °F
Weather ElementAverageHighLow
Temperature28.3 °F33.8 °F (1:30 pm)23 °F (3:00 am)
Dewpoint23.6 °F26.6 °F (8:53 pm)19.4 °F (5:30 am)
Humidity82.9 %100 % (9:39 pm)54 % (1:00 pm)
Barometer29.83 in29.93 in (7:00 pm)29.77 in (12:30 am)
Wind Speed5.9 mph11.5 mph (9:30 am)
Weather ElementAverage
Visibility6.3 mi
Wind DirectionSW (229.5 °)

Weather ElementTotal
Precipitation---
Heating Degree Days36.6 (Base 65)
Averaged from 61 records on February 8, 2013
WEATHER CONDITIONS BREAKOUT
WIND DIRECTION BREAKOUT
WEATHER BY HOUR - FEBRUARY 8, 2013
[ °C ]   °F
Local TimeTemperatureDewpointHumidityBarometerVisibilityWind DirectionWind SpeedGust SpeedPrecipitationEventsConditions
12:30 AM28.4 °F24.8 °F86 %29.77 in6.2 miSW (220°)6.9 mphPartly Cloudy
1:00 AM28.0 °F24.0 °F79 %29.85 in16.0 miWSW (240°)8.9 mphPartly Cloudy
1:00 AM28.4 °F24.8 °F86 %29.77 in6.2 miSW (230°)8.1 mphPartly Cloudy
1:30 AM26.6 °F24.8 °F93 %29.77 inWSW (240°)9.2 mphClear
2:00 AM24.8 °F23.0 °F93 %29.77 inWSW (250°)10.4 mphClear
2:30 AM24.8 °F21.2 °F86 %29.77 inWSW (240°)9.2 mphClear
3:00 AM23.0 °F21.2 °F93 %29.77 inWSW (250°)8.1 mphClear
3:30 AM24.8 °F21.2 °F86 %29.77 in6.2 miWest (260°)3.5 mphPartly Cloudy
4:00 AM24.8 °F21.2 °F86 %29.77 in6.2 miWest (260°)2.3 mphPartly Cloudy
4:30 AM24.8 °F23.0 °F93 %29.77 in6.2 miSW (230°)4.6 mphScattered Clouds
5:00 AM24.8 °F21.2 °F86 %29.77 in6.2 miWSW (250°)4.6 mphScattered Clouds
5:30 AM23.0 °F19.4 °F86 %29.77 in6.2 miWest (260°)4.6 mphPartly Cloudy
6:00 AM24.8 °F23.0 °F93 %29.77 in6.2 miSW (230°)4.6 mphPartly Cloudy
6:30 AM24.8 °F21.2 °F86 %29.80 in6.2 miSSW (210°)6.9 mphScattered Clouds
7:00 AM24.8 °F23.0 °F93 %29.80 in6.2 miSW (220°)6.9 mphScattered Clouds
7:00 AM25.0 °F22.0 °F84 %29.88 in16.0 miSW (230°)8.9 mphPartly Cloudy
7:30 AM24.8 °F23.0 °F93 %29.80 in6.2 miSW (230°)8.1 mphScattered Clouds
8:00 AM26.6 °F23.0 °F86 %29.80 in6.2 miSW (230°)8.1 mphMostly Cloudy
8:30 AM26.6 °F23.0 °F86 %29.80 in6.2 miSW (230°)9.2 mphScattered Clouds
9:00 AM26.6 °F23.0 °F86 %29.80 in6.2 miSW (220°)9.2 mphMostly Cloudy
9:30 AM28.4 °F24.8 °F86 %29.80 in6.2 miWSW (250°)11.5 mphSnowLight Snow
10:00 AM28.4 °F23.0 °F80 %29.80 in6.2 miSW (230°)11.5 mphMostly Cloudy
10:30 AM28.4 °F24.8 °F86 %29.83 in6.2 miWSW (240°)8.1 mphPartly Cloudy
11:00 AM30.2 °F24.8 °F80 %29.83 in6.2 miWSW (250°)10.4 mphPartly Cloudy
11:30 AM30.2 °F24.8 °F80 %29.83 in6.2 miWSW (250°)9.2 mphPartly Cloudy
12:00 PM32.0 °F23.0 °F69 %29.80 in6.2 miWSW (250°)5.8 mphPartly Cloudy
12:30 PM32.0 °F23.0 °F69 %29.80 in6.2 miNW (320°)5.8 mphScattered Clouds
1:00 PM33.0 °F23.0 °F54 %29.88 in22.0 miNW (320°)2.2 mphPartly Cloudy
1:00 PM32.0 °F23.0 °F69 %29.80 in6.2 miVariable2.3 mphScattered Clouds
1:30 PM33.8 °F23.0 °F65 %29.80 in6.2 miVariable2.3 mphScattered Clouds
2:00 PM33.8 °F23.0 °F65 %29.80 in6.2 miNNW (330°)4.6 mphScattered Clouds
2:30 PM33.8 °F21.2 °F60 %29.80 in6.2 miWSW (250°)9.2 mphScattered Clouds
3:00 PM33.8 °F21.2 °F60 %29.80 in6.2 miWSW (240°)9.2 mphScattered Clouds
3:30 PM33.8 °F21.2 °F60 %29.80 in6.2 miSW (230°)5.8 mphPartly Cloudy
4:00 PM33.8 °F21.2 °F60 %29.83 in6.2 miSSW (210°)6.9 mphScattered Clouds
4:30 PM32.0 °F21.2 °F64 %29.83 in6.2 miSW (230°)8.1 mphSnowLight Snow Showers
5:00 PM32.0 °F23.0 °F69 %29.83 in6.2 miVariable2.3 mphSnowLight Snow Showers
5:30 PM30.2 °F24.8 °F80 %29.83 in6.2 miVariable2.3 mphSnowLight Snow Showers
5:50 PM30.2 °F23.0 °F75 %29.83 in6.2 miNE (50°)3.5 mphPartly Cloudy
6:00 PM30.2 °F23.0 °F75 %29.83 in6.2 miNE (50°)3.5 mphPartly Cloudy
6:30 PM28.4 °F23.0 °F80 %29.86 in6.2 miESE (120°)4.6 mphPartly Cloudy
7:00 PM29.0 °F24.0 °F76 %29.93 in7.0 miSouth (180°)4.5 mphPartly Cloudy
7:00 PM28.4 °F24.8 °F86 %29.86 in6.2 miVariable2.3 mphMostly Cloudy
7:17 PM28.4 °F24.8 °F86 %29.86 in6.2 miSSW (210°)5.8 mphSnowLight Snow Showers
7:30 PM28.4 °F24.8 °F86 %29.86 in6.2 miSSW (210°)5.8 mphSnowLight Snow Showers
8:00 PM28.4 °F24.8 °F86 %29.86 in6.2 miWest (280°)3.5 mphMostly Cloudy
8:15 PM28.4 °F24.8 °F86 %29.86 in5.0 miNW (320°)3.5 mphMostly Cloudy
8:24 PM26.6 °F24.8 °F93 %29.86 in4.3 miNNW (330°)4.6 mphMostly Cloudy
8:30 PM28.4 °F24.8 °F86 %29.86 in3.7 miNNW (330°)4.6 mphSnowLight Snow Showers
8:53 PM28.4 °F26.6 °F93 %29.86 in2.2 miNorth (350°)3.5 mphSnowSnow Showers
9:00 PM28.4 °F26.6 °F93 %29.86 in2.5 miNNW (340°)3.5 mphSnowSnow Showers
9:04 PM28.4 °F26.6 °F93 %29.86 in3.1 miNNW (330°)4.6 mphSnowLight Snow Showers
9:12 PM28.4 °F26.6 °F93 %29.86 inNNW (330°)5.8 mphSnowLight Snow Showers
9:22 PM28.4 °F26.6 °F93 %29.86 in1.4 miNNW (330°)4.6 mphSnowSnow Showers
9:30 PM28.4 °F26.6 °F93 %29.86 in2.2 miNW (320°)4.6 mphSnowSnow Showers
9:39 PM26.6 °F26.6 °F100 %29.89 in3.7 miNW (310°)6.9 mphSnowLight Snow Showers
9:52 PM26.6 °F24.8 °F93 %29.89 in3.7 miNW (310°)4.6 mphSnowLight Snow Showers
10:00 PM26.6 °F24.8 °F93 %29.89 in5.6 miNW (310°)3.5 mphMostly Cloudy
10:30 PM24.8 °F23.0 °F93 %29.89 in5.6 miNNW (330°)5.8 mphMostly Cloudy
11:00 PM26.6 °F24.8 °F93 %29.89 in5.6 miNNW (330°)3.5 mphSnowLight Snow
11:30 PM26.6 °F24.8 °F93 %29.89 in5.6 miVariable2.3 mphMostly Cloudy
Hourly data recorded from LKPR, located miles away from Prague, Czech Republic







STORIES FROM OUR PARTNERS